Augusta, GA

11:17 AM EST on January 18, 2018 (GMT -0500)
Daniel

Weather History for KDNL - January, 2013

Change the Weather History Date:

Monday, January 14, 2013

  Actual Average Record
Temperature  
Mean Temperature 69 °F -  
Max Temperature 79 °F 54 °F 79 °F (2013)
Min Temperature 59 °F 36 °F 22 °F (2011)
Cooling Degree Days 4    
Month to date cooling degree days 13  
Year to date cooling degree days 13  
Growing Degree Days 18 (Base 50)    
Moisture  
Dew Point 58 °F    
Average Humidity 72    
Maximum Humidity 90    
Minimum Humidity 50    
Precipitation  
Precipitation 0.00 in - - ()
Month to date precipitation 0.08  
Year to date precipitation 0.08  
Sea Level Pressure  
Sea Level Pressure 30.11 in    
Wind  
Wind Speed 7 mph (South)    
Max Wind Speed 20 mph    
Max Gust Speed 24 mph    
Visibility 10 miles    
Events      
Averages and records for this station are not official NWS values.
T = Trace of Precipitation, MM = Missing Value Source: NWS Daily Summary

Daily Weather History Graph

Daily Weather History Graph

Search for Another Location

Airport or City:

Trip Planner

Search our weather history database for the weather conditions in past years. The results will help you decide how hot, cold, wet, or windy it might be!

Date:

Astronomy

Jan. 14, 2013 Rise Set
Actual Time 7:32 AM EST 5:42 PM EST
Civil Twilight 7:05 AM EST 6:09 PM EST
Nautical Twilight 6:34 AM EST 6:40 PM EST
Astronomical Twilight 6:04 AM EST 7:10 PM EST
Moon 9:16 AM EST (1/14) 9:13 PM EST (1/14)
Length of Visible Light 11h 04m
Length of Day
10h 10m
Waxing Crescent, 11% of the Moon is Illuminated
Jan 14
Waxing Crescent
Jan 18
First Quarter
Jan 26
Full
Feb 3
Last Quarter
Feb 10
New

Hourly Weather History & Observations

Time (EST) Temp. Dew Point Humidity Pressure Visibility Wind Dir Wind Speed Gust Speed Precip Events Conditions
12:53 AM 66.0 °F 59.0 °F 78% 30.09 in 10.0 mi South 9.2 mph - N/A   Clear
1:53 AM 64.9 °F 57.9 °F 78% 30.11 in 10.0 mi SSE 4.6 mph - N/A   Clear
2:53 AM 63.0 °F 57.0 °F 81% 30.11 in 10.0 mi SE 4.6 mph - N/A   Partly Cloudy
3:53 AM 62.1 °F 57.0 °F 84% 30.10 in 10.0 mi SE 4.6 mph - N/A   Clear
4:53 AM 61.0 °F 55.9 °F 83% 30.09 in 10.0 mi SE 4.6 mph - N/A   Clear
5:53 AM 60.1 °F 55.9 °F 86% 30.09 in 10.0 mi SSE 4.6 mph - N/A   Clear
6:53 AM 59.0 °F 55.9 °F 90% 30.11 in 10.0 mi SE 5.8 mph - N/A   Partly Cloudy
7:53 AM 60.1 °F 57.0 °F 90% 30.13 in 10.0 mi SSE 5.8 mph - N/A   Overcast
8:53 AM 62.1 °F 57.9 °F 86% 30.15 in 10.0 mi South 4.6 mph - N/A   Overcast
9:53 AM 64.9 °F 59.0 °F 81% 30.16 in 10.0 mi South 8.1 mph - N/A   Overcast
10:53 AM 71.1 °F 61.0 °F 70% 30.15 in 10.0 mi Variable 6.9 mph - N/A   Clear
11:53 AM 75.9 °F 60.1 °F 58% 30.12 in 10.0 mi SSW 12.7 mph 24.2 mph N/A   Mostly Cloudy
12:53 PM 77.0 °F 60.1 °F 56% 30.09 in 10.0 mi SSW 16.1 mph 24.2 mph N/A   Mostly Cloudy
1:53 PM 75.9 °F 60.1 °F 58% 30.08 in 10.0 mi SW 9.2 mph 19.6 mph N/A   Mostly Cloudy
2:53 PM 78.1 °F 59.0 °F 52% 30.07 in 10.0 mi SSW 9.2 mph - N/A   Scattered Clouds
3:53 PM 77.0 °F 57.9 °F 52% 30.09 in 10.0 mi SSW 10.4 mph 18.4 mph N/A   Partly Cloudy
4:53 PM 75.9 °F 59.0 °F 56% 30.10 in 10.0 mi SSW 10.4 mph - N/A   Clear
5:53 PM 73.9 °F 59.0 °F 59% 30.11 in 10.0 mi South 5.8 mph - N/A   Clear
6:53 PM 72.0 °F 59.0 °F 64% 30.13 in 10.0 mi SSW 5.8 mph - N/A   Mostly Cloudy
7:53 PM 70.0 °F 59.0 °F 68% 30.12 in 10.0 mi South 5.8 mph - N/A   Clear
8:53 PM 69.1 °F 59.0 °F 70% 30.12 in 10.0 mi South 6.9 mph - N/A   Clear
9:53 PM 68.0 °F 59.0 °F 73% 30.12 in 10.0 mi SSW 4.6 mph - N/A   Clear
10:53 PM 66.9 °F 59.0 °F 76% 30.12 in 10.0 mi South 3.5 mph - N/A   Scattered Clouds
11:53 PM 66.0 °F 59.0 °F 78% 30.12 in 10.0 mi South 3.5 mph - N/A   Clear